Location: Arbon
(43.0005°N, 0.7472°E)
Time: 22:42:59
(UTC+00:00)

Courier 1B Rocket - Pass Details

Date: 02 December 2020
Orbit: 920 x 1202 km, 28.2° (Epoch: 22 January)

Event Time Altitude Azimuth Distance (km) Brightness Sun altitude
Rises 06:24:18 0° 247° (WSW) 4,087 7.8 -8.3°
Reaches altitude 10° 06:27:39 10° 236° (SW) 3,129 7.3 -7.7°
Maximum altitude 06:33:51 26° 183° (S) 2,137 7.1 -6.7°
Drops below altitude 10° 06:39:58 10° 130° (SE) 3,071 9.2 -5.7°
Sets 06:43:13 0° 118° (ESE) 3,998 11.2 -5.2°
